This is the latest recevied weather packets stored in our database for station/object KB2KMM. If no packets are shown the sender has not sent any weather packets the latest 1 day(s).
| Time | Temp. | Humidity | Pressure | Rain* | Wind** | Luminosity | Snow |
|---|---|---|---|---|---|---|---|
| 1778003409 | 18.89° C | 68% | 1011.1 hPa | 0 mm | 2.24 m/s, 214° | - | - |
| 1778003105 | 18.89° C | 68% | 1011.3 hPa | 0 mm | 1.79 m/s, 233° | - | - |
| 1778002809 | 18.89° C | 68% | 1011.2 hPa | 0 mm | 2.24 m/s, 225° | - | - |
| 1778002505 | 18.33° C | 69% | 1011.1 hPa | 0 mm | 2.24 m/s, 213° | - | - |
| 1778002209 | 18.33° C | 69% | 1011.3 hPa | 0 mm | 2.68 m/s, 217° | - | - |
| 1778001906 | 18.33° C | 70% | 1011.2 hPa | 0 mm | 1.79 m/s, 220° | - | - |
| 1778001609 | 18.33° C | 70% | 1011.4 hPa | 0 mm | 2.24 m/s, 217° | - | - |
| 1778001305 | 18.33° C | 72% | 1011.4 hPa | 0 mm | 2.24 m/s, 180° | - | - |
| 1778001008 | 18.33° C | 73% | 1011.4 hPa | 0 mm | 0.89 m/s, 221° | - | - |
| 1778000705 | 17.78° C | 73% | 1011.4 hPa | 0 mm | 0.89 m/s, 194° | - | - |
| 1778000405 | 17.78° C | 73% | 1011.4 hPa | 0 mm | 1.34 m/s, 199° | - | - |
| 1778000105 | 17.78° C | 72% | 1011.4 hPa | 0 mm | 2.68 m/s, 240° | - | - |
| 1777999809 | 18.33° C | 71% | 1011.4 hPa | 0 mm | 2.68 m/s, 219° | - | - |
| 1777999505 | 18.33° C | 72% | 1011.5 hPa | 0 mm | 2.24 m/s, 203° | - | - |
| 1777999209 | 18.33° C | 72% | 1011.5 hPa | 0 mm | 1.79 m/s, 210° | - | - |
| 1777998905 | 18.33° C | 71% | 1011.5 hPa | 0 mm | 2.24 m/s, 225° | - | - |
| 1777998609 | 18.33° C | 71% | 1011.7 hPa | 0 mm | 2.68 m/s, 233° | - | - |
| 1777998305 | 18.33° C | 71% | 1011.8 hPa | 0 mm | 1.34 m/s, 155° | - | - |
| 1777998009 | 18.33° C | 72% | 1011.8 hPa | 0 mm | 2.24 m/s, 138° | - | - |
| 1777997705 | 18.33° C | 74% | 1011.7 hPa | 0 mm | 0.89 m/s, 218° | - | - |
| 1777997408 | 18.33° C | 74% | 1011.7 hPa | 0 mm | 0.89 m/s, 218° | - | - |
| 1777997105 | 18.33° C | 73% | 1011.8 hPa | 0 mm | 0.89 m/s, 207° | - | - |
| 1777996804 | 18.33° C | 73% | 1011.9 hPa | 0 mm | 1.34 m/s, 208° | - | - |
| 1777996505 | 18.33° C | 73% | 1012 hPa | 0 mm | 1.79 m/s, 196° | - | - |
| 1777996209 | 18.33° C | 76% | 1011.8 hPa | 0 mm | 1.34 m/s, 208° | - | - |
* Rain latest hour (hover to see other rain measurements)
** Current wind speed in m/s (hover to see current wind gust speed)